Flag for United Kingdom Weather past 2 weeks in Chichester, England, United Kingdom

Now
67 °F

Mild.


Feels Like: 67 °F
Forecast: 60 / 68 °F
Wind: 8 mph from West

Location: Thorney Island

Current Time: Sep 30, 2014 at 1:01:40 PM

Latest Report: Sep 30, 2014 at 12:00 PM


Visibility: 11 mi

Pressure: 30.24 "Hg

Humidity: 74%

Dew point: 58 °F

Location of ChichesterLocation

Historic Weather in Chichester — Graph

°F

Chichester temperature yesterday

Maximum temperature yesterday: 67 °F (at 2:00 PM)
Minimum temperature yesterday: 56 °F (at 12:00 AM)
Average temperature yesterday: 60 °F

Past Weeks' High & Low Weather Summary

 TemperatureHumidityPressure
High74 °F (Sep 19, 4:00 PM)100% (Sep 19, 5:00 AM)30.33 "Hg (Sep 19, 5:00 AM)
Low41 °F (Sep 23, 7:00 AM)48% (Sep 24, 5:00 PM)29.75 "Hg (Sep 18, 5:00 AM)
Average60 °F86%30.07 "Hg
* Reported Sep 15 11:00 AM — Sep 30 11:00 AM, Chichester, Weather by CustomWeather, © 2014

Note: Actual official high and low records may vary slightly from our data, if they occured in-between our weather recording intervals... More about our weather records

Advertising

Chichester weather history for previous 24 hours

 ConditionsComfort  
Time TempWeatherWind HumidityBarometerVisibility
11:00 AM
Sep 30
65 °FMild.9 mph81%30.24 "Hg9 mi
10:00 AM65 °FMild.8 mph93%30.23 "Hg7 mi
9:00 AM59 °FFog.2 mph100%30.22 "Hg4 mi
8:00 AM58 °FFog.2 mph99%30.22 "Hg3 mi
7:00 AM57 °FFog.1 mph99%30.20 "Hg4 mi
6:00 AM57 °FFog.3 mph98%30.20 "Hg4 mi
5:00 AM59 °FCool.7 mph96%30.19 "Hg10 mi
4:00 AM59 °FCool.7 mph94%30.19 "Hg11 mi
3:00 AM61 °FCool.9 mph91%30.19 "Hg14 mi
2:00 AM60 °FCool.5 mph93%30.19 "Hg11 mi
1:00 AM60 °FCool.7 mph92%30.18 "Hg10 mi
12:00 AM60 °FCool.7 mph99%30.18 "Hg7 mi
11:00 PM
Sep 29
58 °FFog.6 mph98%30.18 "Hg6 mi
10:00 PM58 °FFog.8 mph97%30.17 "Hg5 mi
9:00 PM59 °FFog.7 mph97%30.16 "Hg4 mi
8:00 PM60 °FFog.7 mph94%30.15 "Hg5 mi
7:00 PM61 °FCool.8 mph88%30.14 "Hg7 mi
6:00 PM63 °FMild.13 mph82%30.13 "Hg13 mi
5:00 PM65 °FMild.12 mph79%30.13 "Hg14 mi
4:00 PM66 °FMild.14 mph78%30.13 "Hg14 mi
3:00 PM66 °FMild.13 mph83%30.13 "Hg14 mi
2:00 PM67 °FMild.10 mph78%30.12 "Hg16 mi
1:00 PM65 °FFog.6 mph100%30.13 "Hg4 mi
Weather by CustomWeather, © 2014

See weather overviewHow to use our weather pages